Location: La Trinit�
(48.1620°N, 3.4512°W)
Time: 04:12:34
(UTC+00:00)

NOSS 3-4 (A) - Pass Details

Date: 08 May 2021
Orbit: 872 x 1340 km, 63.4° (Epoch: 06 May)

Event Time Altitude Azimuth Distance (km) Brightness Sun altitude
Rises 21:32:15 0° 318° (NW) 3,745 8.4 -15.6°
Reaches altitude 10° 21:34:49 10° 323° (NW) 2,855 7.3 -15.9°
Maximum altitude 21:41:29 54° 40° (NE) 1,359 4.3 -16.6°
Enters shadow 21:47:02 18° 112° (ESE) 2,561 5.2 -17.1°
